Location: Zagreb
(45.8000°N, 16.0000°E)
Time: 03:21:16
(UTC+02:00)

Vanguard 2 Rocket - Pass Details

Date: 19 August 2022
Orbit: 553 x 3323 km, 32.9° (Epoch: 30 September)

Event Time Altitude Azimuth Distance (km) Brightness Sun altitude
Rises 20:21:07 0° 277° (W) 7,295 13.3 -4.6°
Reaches altitude 10° 20:28:41 10° 262° (W) 6,255 12.2 -5.8°
Maximum altitude 20:39:14 17° 229° (SW) 5,291 11.1 -7.5°
Drops below altitude 10° 20:48:29 10° 195° (SSW) 5,332 10.7 -8.9°
Sets 20:54:10 0° 177° (S) 5,851 10.7 -9.8°
